When you browse on this site, cookies collect data to enhance your experience and personalize the content and advertising you see.
Visit our Privacy Policy to learn more. By continuing to use the site, you agree to this use of cookies and data.
  • In Czech Republic
  • List of Countries
  • For 7 days
  • Water Temperature
  • Satellite Maps
  • Weather Map
  • Weather Widgets
  • user-avatar
    Login

    Hourly Weather Regina

    Today, 17 June, Monday

    Time Temperature Precipitation Wind Pressure Humidity
    00:00 +10°C° 0 mm 1 mps 712 mmHg 82%
    01:00 +10°C° 0 mm 1 mps 712 mmHg 84%
    02:00 +9°C° 0 mm 1 mps 712 mmHg 86%
    03:00 +9°C° 0 mm 1 mps 712 mmHg 86%
    04:00 +10°C° 0 mm 1 mps 713 mmHg 86%
    05:00 +10°C° 0 mm 1 mps 713 mmHg 86%
    06:00 +11°C° 0 mm 1 mps 713 mmHg 80%
    07:00 +13°C° 0 mm 2 mps 713 mmHg 74%
    08:00 +15°C° 0 mm 2 mps 713 mmHg 68%
    09:00 +16°C° 0 mm 1 mps 713 mmHg 63%
    10:00 +19°C° 0 mm 1 mps 713 mmHg 57%
    11:00 +20°C° 0 mm 1 mps 714 mmHg 51%
    12:00 +20°C° 0 mm 1 mps 713 mmHg 49%
    13:00 +20°C° 0 mm 2 mps 713 mmHg 46%
    14:00 +20°C° 0 mm 2 mps 713 mmHg 44%
    15:00 +20°C° 0 mm 2 mps 713 mmHg 45%
    16:00 +20°C° 0 mm 2 mps 713 mmHg 47%
    17:00 +20°C° 0 mm 2 mps 713 mmHg 48%
    18:00 +18°C° 0 mm 2 mps 713 mmHg 52%
    19:00 +18°C° 0 mm 1 mps 713 mmHg 55%
    20:00 +16°C° 0 mm 1 mps 713 mmHg 59%
    21:00 +15°C° 0 mm 1 mps 712 mmHg 60%
    22:00 +14°C° 0 mm 2 mps 712 mmHg 62%
    23:00 +13°C° 0 mm 2 mps 712 mmHg 64%

    Tomorrow, 18 June, Tuesday

    Time Temperature Precipitation Wind Pressure Humidity
    00:00 +13°C° 0 mm 2 mps 712 mmHg 67%
    01:00 +11°C° 0 mm 3 mps 711 mmHg 69%
    02:00 +11°C° 0 mm 3 mps 711 mmHg 72%
    03:00 +11°C° 0 mm 3 mps 711 mmHg 74%
    04:00 +12°C° 0 mm 2 mps 711 mmHg 77%
    05:00 +12°C° 0 mm 2 mps 711 mmHg 79%
    06:00 +13°C° 0 mm 3 mps 711 mmHg 70%
    07:00 +16°C° 0 mm 3 mps 711 mmHg 61%
    08:00 +18°C° 0 mm 4 mps 712 mmHg 53%
    09:00 +19°C° 0 mm 4 mps 711 mmHg 49%
    10:00 +20°C° 0 mm 4 mps 711 mmHg 45%
    11:00 +21°C° 0 mm 5 mps 711 mmHg 41%
    12:00 +22°C° 0 mm 5 mps 710 mmHg 41%
    13:00 +22°C° 0 mm 4 mps 710 mmHg 40%
    14:00 +23°C° 0 mm 4 mps 710 mmHg 39%
    15:00 +22°C° 0 mm 4 mps 709 mmHg 42%
    16:00 +22°C° 0 mm 4 mps 709 mmHg 44%
    17:00 +22°C° 0 mm 4 mps 708 mmHg 47%
    18:00 +20°C° 0 mm 4 mps 708 mmHg 53%
    19:00 +18°C° 0 mm 4 mps 708 mmHg 60%
    20:00 +17°C° 0 mm 3 mps 708 mmHg 67%
    21:00 +15°C° 0 mm 4 mps 708 mmHg 70%
    22:00 +14°C° 0 mm 4 mps 707 mmHg 73%
    23:00 +13°C° 0 mm 4 mps 707 mmHg 77%

    Day after tomorrow, 19 June, Wednesday

    Time Temperature Precipitation Wind Pressure Humidity
    00:00 +13°C° 0 mm 4 mps 707 mmHg 79%
    01:00 +12°C° 0 mm 4 mps 707 mmHg 81%
    02:00 +12°C° 0 mm 4 mps 707 mmHg 83%
    03:00 +12°C° 0 mm 4 mps 707 mmHg 84%
    04:00 +12°C° 0 mm 4 mps 706 mmHg 85%
    05:00 +12°C° 0 mm 4 mps 706 mmHg 87%
    06:00 +14°C° 0 mm 5 mps 706 mmHg 80%
    07:00 +16°C° 0 mm 6 mps 706 mmHg 73%
    08:00 +17°C° 0 mm 6 mps 706 mmHg 66%
    09:00 +20°C° 0 mm 7 mps 706 mmHg 62%
    10:00 +21°C° 0 mm 7 mps 705 mmHg 57%
    11:00 +22°C° 0 mm 8 mps 705 mmHg 52%
    12:00 +22°C° 0 mm 8 mps 704 mmHg 51%
    13:00 +23°C° 0 mm 8 mps 704 mmHg 49%
    14:00 +23°C° 0 mm 9 mps 704 mmHg 48%
    15:00 +23°C° 0.1 mm 8 mps 703 mmHg 50%
    16:00 +22°C° 0.1 mm 8 mps 703 mmHg 52%
    17:00 +22°C° 0.1 mm 7 mps 703 mmHg 54%
    18:00 +20°C° 0.2 mm 7 mps 703 mmHg 59%
    19:00 +19°C° 0.2 mm 6 mps 702 mmHg 64%
    20:00 +16°C° 0.2 mm 5 mps 702 mmHg 68%
    21:00 +16°C° 0.1 mm 5 mps 702 mmHg 71%
    22:00 +15°C° 0.1 mm 5 mps 702 mmHg 73%
    23:00 +15°C° 0.1 mm 6 mps 702 mmHg 75%

    20 June, Thursday

    Time Temperature Precipitation Wind Pressure Humidity
    00:00 +14°C° 0.1 mm 6 mps 702 mmHg 77%
    01:00 +14°C° 0.1 mm 6 mps 702 mmHg 79%
    02:00 +13°C° 0.1 mm 6 mps 702 mmHg 81%
    03:00 +13°C° 0 mm 6 mps 702 mmHg 81%
    04:00 +13°C° 0 mm 6 mps 702 mmHg 82%
    05:00 +13°C° 0 mm 5 mps 702 mmHg 82%
    06:00 +13°C° 0.3 mm 6 mps 702 mmHg 82%
    07:00 +13°C° 0.3 mm 6 mps 702 mmHg 82%
    08:00 +14°C° 0.3 mm 7 mps 702 mmHg 83%
    09:00 +12°C° 1.1 mm 7 mps 702 mmHg 83%
    10:00 +12°C° 1.1 mm 8 mps 702 mmHg 84%
    11:00 +11°C° 1.1 mm 8 mps 702 mmHg 85%
    12:00 +11°C° 1.1 mm 7 mps 703 mmHg 84%
    13:00 +11°C° 1.1 mm 7 mps 703 mmHg 84%
    14:00 +11°C° 1.1 mm 6 mps 703 mmHg 83%
    15:00 +11°C° 1.2 mm 6 mps 703 mmHg 85%
    16:00 +12°C° 1.2 mm 5 mps 703 mmHg 87%
    17:00 +10°C° 1.2 mm 5 mps 703 mmHg 88%
    18:00 +11°C° 0.9 mm 4 mps 703 mmHg 89%
    19:00 +11°C° 0.9 mm 3 mps 703 mmHg 91%
    20:00 +10°C° 0.9 mm 2 mps 703 mmHg 92%
    21:00 +10°C° 0.5 mm 2 mps 703 mmHg 93%
    22:00 +10°C° 0.5 mm 3 mps 703 mmHg 93%
    23:00 +10°C° 0.5 mm 3 mps 703 mmHg 94%

    21 June, Friday

    Time Temperature Precipitation Wind Pressure Humidity
    00:00 +10°C° 0.5 mm 3 mps 703 mmHg 94%
    01:00 +10°C° 0.5 mm 2 mps 703 mmHg 95%
    02:00 +10°C° 0.5 mm 2 mps 703 mmHg 95%
    03:00 +10°C° 0.1 mm 2 mps 703 mmHg 96%
    04:00 +10°C° 0.1 mm 2 mps 703 mmHg 96%
    05:00 +10°C° 0.1 mm 2 mps 703 mmHg 96%
    06:00 +12°C° 0 mm 2 mps 703 mmHg 91%
    07:00 +13°C° 0 mm 2 mps 703 mmHg 87%
    08:00 +14°C° 0 mm 2 mps 703 mmHg 82%
    09:00 +13°C° 0.5 mm 3 mps 703 mmHg 81%
    10:00 +14°C° 0.5 mm 3 mps 703 mmHg 81%
    11:00 +14°C° 0.5 mm 3 mps 703 mmHg 81%
    12:00 +13°C° 1.1 mm 4 mps 703 mmHg 83%
    13:00 +13°C° 1.1 mm 4 mps 702 mmHg 86%
    14:00 +12°C° 1.1 mm 5 mps 702 mmHg 89%
    15:00 +12°C° 0.3 mm 4 mps 702 mmHg 89%
    16:00 +12°C° 0.3 mm 4 mps 702 mmHg 89%
    17:00 +12°C° 0.3 mm 3 mps 702 mmHg 89%
    18:00 +12°C° 0.1 mm 3 mps 702 mmHg 90%
    19:00 +12°C° 0.1 mm 3 mps 702 mmHg 91%
    20:00 +12°C° 0.1 mm 3 mps 702 mmHg 92%
    21:00 +12°C° 0.3 mm 4 mps 702 mmHg 92%
    22:00 +12°C° 0.3 mm 4 mps 703 mmHg 92%
    23:00 +12°C° 0.3 mm 5 mps 703 mmHg 91%

    22 June, Saturday

    Time Temperature Precipitation Wind Pressure Humidity
    00:00 +12°C° 0.1 mm 5 mps 703 mmHg 93%
    01:00 +12°C° 0.1 mm 4 mps 703 mmHg 94%
    02:00 +12°C° 0.1 mm 4 mps 703 mmHg 95%
    03:00 +12°C° 0 mm 4 mps 703 mmHg 95%
    04:00 +12°C° 0 mm 4 mps 703 mmHg 95%
    05:00 +12°C° 0 mm 4 mps 703 mmHg 94%
    06:00 +12°C° 0 mm 4 mps 703 mmHg 92%
    07:00 +13°C° 0 mm 4 mps 703 mmHg 90%
    08:00 +13°C° 0 mm 5 mps 704 mmHg 88%
    09:00 +14°C° 0.2 mm 5 mps 704 mmHg 84%
    10:00 +15°C° 0.2 mm 5 mps 704 mmHg 80%
    11:00 +16°C° 0.2 mm 6 mps 704 mmHg 76%
    12:00 +17°C° 0.3 mm 6 mps 704 mmHg 71%
    13:00 +19°C° 0.3 mm 6 mps 704 mmHg 66%
    14:00 +20°C° 0.3 mm 6 mps 703 mmHg 62%
    15:00 +20°C° 0.3 mm 6 mps 703 mmHg 63%
    16:00 +20°C° 0.3 mm 6 mps 703 mmHg 63%
    17:00 +20°C° 0.3 mm 6 mps 703 mmHg 64%
    18:00 +19°C° 0.3 mm 5 mps 703 mmHg 70%
    19:00 +17°C° 0.3 mm 4 mps 703 mmHg 77%
    20:00 +16°C° 0.3 mm 3 mps 703 mmHg 83%
    21:00 +14°C° 0 mm 3 mps 702 mmHg 86%
    22:00 +13°C° 0 mm 3 mps 702 mmHg 88%
    23:00 +12°C° 0 mm 3 mps 702 mmHg 91%
    Show more